Weather History for KSPI - April, 2013

Change the Weather History Date:

Saturday, April 27, 2013

  Actual Average Record
Temperature  
Mean Temperature 50 °F 58 °F  
Max Temperature 56 °F 69 °F 87 °F (1981)
Min Temperature 44 °F 46 °F 33 °F (1968)
Degree Days  
Heating Degree Days 15 8  
Month to date heating degree days 401 342  
Since 1 July heating degree days 5218 5324  
Cooling Degree Days 0 1  
Month to date cooling degree days 7 16  
Year to date cooling degree days 7 18  
Moisture  
Dew Point 49 °F    
Average Humidity 83    
Maximum Humidity 100    
Minimum Humidity 66    
Precipitation  
Precipitation 0.25 in 0.13 in 1.93 in (2002)
Month to date precipitation 5.02 3.12  
Year to date precipitation 14.07 9.38  
Snow  
Snow 0.00 in 0.00 in 0.00 in ()
Month to date snowfall T 0.3  
Since 1 July snowfall 33.1 20.9  
Snow Depth 0.00 in    
Sea Level Pressure  
Sea Level Pressure 30.12 in    
Wind  
Wind Speed 7 mph (East)    
Max Wind Speed 16 mph    
Max Gust Speed 20 mph    
Visibility 7 miles    
Events Rain    
T = Trace of Precipitation, MM = Missing Value Source: NWS Daily Summary

Daily Weather History Graph

Daily Weather History Graph

Search for Another Location

Airport or City:

Trip Planner

Search our weather history database for the weather conditions in past years. The results will help you decide how hot, cold, wet, or windy it might be!

Date:

Astronomy

Apr. 27, 2013 Rise Set
Actual Time 6:03 AM CDT 7:49 PM CDT
Civil Twilight 5:34 AM CDT 8:18 PM CDT
Nautical Twilight 4:59 AM CDT 8:53 PM CDT
Astronomical Twilight 4:22 AM CDT 9:31 PM CDT
Moon 10:18 PM CDT 7:22 AM CDT
Length of Visible Light 14h 43m
Length of Day
13h 45m
Waning Gibbous, 95% of the Moon is Illuminated
Apr 27
Waning Gibbous
May 2
Last Quarter
May 9
New
May 17
First Quarter
May 24
Full

Hourly Weather History & Observations

Time (CDT) Temp. Dew Point Humidity Pressure Visibility Wind Dir Wind Speed Gust Speed Precip Events Conditions
12:52 AM 48.9 °F 45.0 °F 86% 30.30 in 10.0 mi South 4.6 mph - N/A   Clear
1:52 AM 46.9 °F 44.1 °F 90% 30.28 in 10.0 mi South 5.8 mph - 0.00 in   Clear
2:52 AM 46.9 °F 45.0 °F 93% 30.28 in 10.0 mi Calm Calm - N/A   Clear
3:52 AM 46.0 °F 44.1 °F 93% 30.27 in 9.0 mi Calm Calm - N/A   Overcast
4:52 AM 48.0 °F 46.0 °F 93% 30.25 in 10.0 mi East 4.6 mph - N/A   Overcast
5:52 AM 48.0 °F 46.0 °F 93% 30.23 in 9.0 mi East 3.5 mph - N/A   Overcast
6:52 AM 48.9 °F 46.0 °F 90% 30.23 in 9.0 mi East 4.6 mph - N/A   Overcast
7:52 AM 52.0 °F 46.0 °F 80% 30.21 in 10.0 mi East 8.1 mph - N/A   Mostly Cloudy
8:52 AM 53.1 °F 46.0 °F 77% 30.21 in 10.0 mi East 11.5 mph - N/A   Overcast
9:52 AM 55.0 °F 46.9 °F 74% 30.19 in 10.0 mi East 8.1 mph - N/A   Overcast
10:52 AM 55.0 °F 45.0 °F 69% 30.19 in 10.0 mi ESE 10.4 mph - N/A   Overcast
11:52 AM 55.9 °F 45.0 °F 67% 30.18 in 10.0 mi ESE 15.0 mph - N/A   Overcast
12:17 PM 55.4 °F 46.4 °F 72% 30.17 in 10.0 mi ESE 11.5 mph - 0.00 in Rain Light Rain
12:52 PM 55.0 °F 48.0 °F 77% 30.16 in 10.0 mi ESE 13.8 mph - 0.00 in Rain Light Rain
1:52 PM 54.0 °F 48.0 °F 80% 30.13 in 10.0 mi ESE 11.5 mph - 0.00 in Rain Light Rain
2:52 PM 53.1 °F 50.0 °F 89% 30.12 in 7.0 mi ESE 9.2 mph - 0.05 in Rain Light Rain
3:24 PM 53.6 °F 51.8 °F 94% 30.10 in 5.0 mi ESE 5.8 mph - 0.04 in Rain Light Rain
3:52 PM 53.1 °F 51.1 °F 93% 30.09 in 7.0 mi ESE 10.4 mph - 0.06 in Rain Light Rain
3:59 PM 53.6 °F 51.8 °F 94% 30.08 in 8.0 mi ESE 6.9 mph - 0.00 in Rain Light Rain
4:30 PM 53.6 °F 51.8 °F 94% 30.07 in 8.0 mi ESE 8.1 mph - 0.00 in   Overcast
4:52 PM 53.1 °F 51.1 °F 93% 30.08 in 6.0 mi ESE 5.8 mph - 0.00 in Rain Light Rain
5:52 PM 53.1 °F 51.1 °F 93% 30.05 in 3.0 mi ENE 6.9 mph - 0.01 in Rain Light Rain
6:52 PM 52.0 °F 51.1 °F 97% 30.03 in 7.0 mi NE 6.9 mph - 0.00 in   Overcast
7:52 PM 53.1 °F 51.1 °F 93% 30.01 in 4.0 mi ENE 6.9 mph - N/A   Overcast
8:30 PM 53.6 °F 51.8 °F 94% 30.00 in 2.5 mi ENE 6.9 mph - 0.01 in Rain Light Rain
8:52 PM 53.1 °F 52.0 °F 96% 30.00 in 3.0 mi ENE 6.9 mph - 0.02 in Rain Light Rain
9:31 PM 53.6 °F 51.8 °F 94% 30.00 in 2.5 mi ENE 8.1 mph - N/A Rain Light Rain
9:47 PM 53.6 °F 51.8 °F 94% 30.00 in 3.0 mi NE 5.8 mph - 0.02 in Rain Light Rain
9:52 PM 53.1 °F 52.0 °F 96% 30.00 in 2.5 mi NE 6.9 mph - 0.02 in Rain Light Rain
10:33 PM 53.6 °F 51.8 °F 94% 29.98 in 3.0 mi ENE 5.8 mph - 0.04 in Rain Light Rain
10:52 PM 53.1 °F 52.0 °F 96% 29.98 in 4.0 mi ENE 5.8 mph - 0.06 in Rain Light Rain
11:52 PM 52.0 °F 51.1 °F 97% 29.95 in 5.0 mi ENE 8.1 mph - 0.02 in Rain Light Rain